KB7STN Weather Reports


Display with metric or nautical units.
time (UTC)temp
F
wind
direction
speed
MPH
gust
MPH
rain 1hr
in
rain 24hr
in
rain mn
in
humidity
%
barometer
mb
20260504003721 71 5 0.0 4.0 0.00 0.00 0.00 19 1000.2
20260504003221 71 5 0.0 1.0 0.00 0.00 0.00 20 1000.2
20260504002721 71 5 0.0 2.0 0.00 0.00 0.00 18 1000.3
20260504002221 71 5 1.0 2.0 0.00 0.00 0.00 18 1000.3
20260504001721 71 5 1.0 5.0 0.00 0.00 0.00 18 1000.4
20260504001221 72 5 1.0 5.0 0.00 0.00 0.00 19 1000.3
20260504000721 72 5 1.0 3.0 0.00 0.00 0.00 18 1000.3
20260504000221 72 5 1.0 2.0 0.00 0.00 0.00 18 1000.3
20260503235721 72 5 1.0 3.0 0.00 0.00 0.00 17 1000.3
20260503235221 72 5 0.0 2.0 0.00 0.00 0.00 18 1000.3
20260503234721 72 5 0.0 1.0 0.00 0.00 0.00 19 1000.3
20260503234221 73 5 1.0 3.0 0.00 0.00 0.00 17 1000.3
20260503233721 73 5 1.0 2.0 0.00 0.00 0.00 17 1000.3
20260503233221 73 5 1.0 6.0 0.00 0.00 0.00 16 1000.4
20260503232721 73 36 1.0 6.0 0.00 0.00 0.00 19 1000.2
20260503232221 73 170 0.0 0.0 0.00 0.00 0.00 18 1000.3
20260503231721 73 170 0.0 1.0 0.00 0.00 0.00 18 1000.4
20260503231221 73 170 0.0 4.0 0.00 0.00 0.00 18 1000.4
20260503230721 73 169 0.0 0.0 0.00 0.00 0.00 16 1000.5
20260503230221 73 155 0.0 1.0 0.00 0.00 0.00 16 1000.5
20260503225721 73 155 1.0 4.0 0.00 0.00 0.00 16 1000.5
20260503225230 72 155 1.0 5.0 0.00 0.00 0.00 17 1000.6
20260503224721 72 155 1.0 3.0 0.00 0.00 0.00 17 1000.6
20260503224221 72 154 2.0 7.0 0.00 0.00 0.00 17 1000.7
20260503223721 72 157 2.0 7.0 0.00 0.00 0.00 16 1000.8
20260503223221 72 186 1.0 4.0 0.00 0.00 0.00 17 1000.8
20260503222721 72 181 2.0 4.0 0.00 0.00 0.00 17 1000.9
20260503222221 72 178 3.0 5.0 0.00 0.00 0.00 16 1000.9
20260503221721 72 184 3.0 6.0 0.00 0.00 0.00 16 1001.0
20260503221221 73 205 4.0 5.0 0.00 0.00 0.00 16 1001.1
20260503220721 73 222 4.0 7.0 0.00 0.00 0.00 16 1001.2
20260503220221 73 217 4.0 7.0 0.00 0.00 0.00 16 1001.2
20260503215721 74 195 4.0 12.0 0.00 0.00 0.00 15 1001.2
20260503215221 74 169 3.0 8.0 0.00 0.00 0.00 15 1001.3
20260503214721 74 171 4.0 8.0 0.00 0.00 0.00 15 1001.4
20260503214221 75 163 4.0 11.0 0.00 0.00 0.00 15 1001.5
20260503213721 75 155 4.0 7.0 0.00 0.00 0.00 16 1001.6
20260503213221 75 190 4.0 7.0 0.00 0.00 0.00 16 1001.7
20260503212721 75 222 3.0 8.0 0.00 0.00 0.00 16 1001.8
20260503212221 74 163 3.0 7.0 0.00 0.00 0.00 17 1002.0
20260503211721 74 209 4.0 8.0 0.00 0.00 0.00 17 1002.1
20260503211221 74 204 3.0 7.0 0.00 0.00 0.00 17 1002.2
20260503210721 74 172 4.0 7.0 0.00 0.00 0.00 16 1002.4
20260503210221 74 176 4.0 7.0 0.00 0.00 0.00 17 1002.4
20260503205721 74 215 5.0 9.0 0.00 0.00 0.00 16 1002.5
20260503205221 74 188 5.0 10.0 0.00 0.00 0.00 16 1002.6
20260503204721 75 151 4.0 11.0 0.00 0.00 0.00 15 1002.6
20260503204221 75 163 3.0 6.0 0.00 0.00 0.00 17 1002.8
20260503203721 75 184 3.0 8.0 0.00 0.00 0.00 17 1002.8
20260503203221 75 217 3.0 5.0 0.00 0.00 0.00 18 1002.9
20260503202721 75 159 3.0 7.0 0.00 0.00 0.00 17 1003.0
20260503202221 75 214 2.0 8.0 0.00 0.00 0.00 17 1003.2
20260503201721 74 190 3.0 6.0 0.00 0.00 0.00 18 1003.3
20260503201221 74 205 3.0 6.0 0.00 0.00 0.00 17 1003.3
20260503200721 74 209 3.0 8.0 0.00 0.00 0.00 15 1003.5
20260503200221 74 202 3.0 5.0 0.00 0.00 0.00 15 1003.5
20260503195721 74 196 3.0 6.0 0.00 0.00 0.00 18 1003.6
20260503195221 74 164 3.0 7.0 0.00 0.00 0.00 18 1003.7
20260503194721 75 168 3.0 7.0 0.00 0.00 0.00 18 1003.8
20260503194221 74 196 2.0 7.0 0.00 0.00 0.00 19 1003.8
20260503193721 75 157 2.0 8.0 0.00 0.00 0.00 18 1003.9
20260503193221 74 215 2.0 7.0 0.00 0.00 0.00 19 1004.0
20260503192723 75 182 2.0 6.0 0.00 0.00 0.00 16 1004.0
20260503192221 74 175 1.0 7.0 0.00 0.00 0.00 19 1004.1
20260503191721 74 242 1.0 7.0 0.00 0.00 0.00 19 1004.1
20260503191221 73 242 1.0 6.0 0.00 0.00 0.00 21 1004.1
20260503190721 73 242 1.0 3.0 0.00 0.00 0.00 18 1004.4
20260503190221 72 242 1.0 6.0 0.00 0.00 0.00 21 1004.4
20260503185721 72 242 1.0 6.0 0.00 0.00 0.00 23 1004.5
20260503185221 71 242 1.0 3.0 0.00 0.00 0.00 23 1004.7
20260503184721 71 242 1.0 5.0 0.00 0.00 0.00 20 1004.7
20260503184221 72 242 1.0 3.0 0.00 0.00 0.00 23 1004.8
20260503183721 71 242 1.0 4.0 0.00 0.00 0.00 24 1004.8
20260503183221 71 242 1.0 6.0 0.00 0.00 0.00 21 1004.9
20260503182721 70 242 1.0 6.0 0.00 0.00 0.00 23 1004.9
20260503182221 70 242 1.0 4.0 0.00 0.00 0.00 23 1005.0
20260503181721 70 242 2.0 5.0 0.00 0.00 0.00 23 1005.1
20260503181221 70 242 2.0 8.0 0.00 0.00 0.00 23 1005.2
20260503180721 69 247 2.0 5.0 0.00 0.00 0.00 24 1005.2
20260503180221 69 246 2.0 5.0 0.00 0.00 0.00 24 1005.2
20260503175722 68 248 2.0 7.0 0.00 0.00 0.00 25 1005.3
20260503175221 68 248 2.0 5.0 0.00 0.00 0.00 23 1005.3
20260503174721 69 248 2.0 5.0 0.00 0.00 0.00 21 1005.4
20260503174222 69 253 2.0 6.0 0.00 0.00 0.00 23 1005.4
20260503173722 69 192 2.0 7.0 0.00 0.00 0.00 22 1005.4
20260503173221 69 240 2.0 6.0 0.00 0.00 0.00 21 1005.5
20260503172721 69 241 1.0 4.0 0.00 0.00 0.00 22 1005.6
20260503172221 69 242 2.0 5.0 0.00 0.00 0.00 23 1005.7
20260503171722 69 251 1.0 5.0 0.00 0.00 0.00 22 1005.8
20260503171222 69 260 1.0 6.0 0.00 0.00 0.00 21 1005.7
20260503170721 68 249 1.0 7.0 0.00 0.00 0.00 23 1005.9
20260503170222 68 210 1.0 6.0 0.00 0.00 0.00 24 1006.0
20260503150722 61 32 0.0 0.0 0.00 0.00 0.00 37 1006.5
20260503150222 61 32 0.0 0.0 0.00 0.00 0.00 36 1006.5
20260503140222 57 32 0.0 0.0 0.00 0.00 0.00 36 1006.6
20260503131222 51 32 0.0 0.0 0.00 0.00 0.00 38 1006.4
20260503130722 51 32 0.0 0.0 0.00 0.00 0.00 40 1006.3
20260503130222 51 32 0.0 0.0 0.00 0.00 0.00 39 1006.4
20260503120222 50 32 0.0 0.0 0.00 0.00 0.00 39 1006.5
20260503110722 51 32 0.0 0.0 0.00 0.00 0.00 39 1007.1
20260503110222 51 32 0.0 0.0 0.00 0.00 0.00 38 1007.1
20260503100222 51 32 0.0 0.0 0.00 0.00 0.00 37 1006.9
20260503090222 54 32 0.0 0.0 0.00 0.00 0.00 33 1006.9
20260503081222 54 32 0.0 0.0 0.00 0.00 0.00 32 1007.2
20260503080722 54 32 0.0 0.0 0.00 0.00 0.00 32 1007.3
20260503080222 54 32 0.0 0.0 0.00 0.00 0.00 32 1007.4
20260503072723 53 32 0.0 0.0 0.00 0.00 0.00 35 1007.6
20260503072223 54 32 0.0 0.0 0.00 0.00 0.00 35 1007.7
20260503071723 54 32 0.0 0.0 0.00 0.00 0.00 35 1007.7
20260503071223 54 32 0.0 0.0 0.00 0.00 0.00 32 1007.6
20260503070723 55 32 0.0 0.0 0.00 0.00 0.00 32 1007.6
20260503070223 55 32 0.0 0.0 0.00 0.00 0.00 31 1007.6
20260503060223 54 32 0.0 0.0 0.00 0.00 0.00 33 1007.6
20260503054723 55 32 0.0 0.0 0.00 0.00 0.00 34 1007.7
20260503054223 55 32 0.0 0.0 0.00 0.00 0.00 33 1007.6
20260503053723 55 32 0.0 0.0 0.00 0.00 0.00 33 1007.7
20260503053223 55 32 0.0 0.0 0.00 0.00 0.00 32 1007.7
20260503052723 55 32 0.0 0.0 0.00 0.00 0.00 32 1007.6
20260503052223 55 32 0.0 0.0 0.00 0.00 0.00 32 1007.6
20260503051723 55 32 0.0 0.0 0.00 0.00 0.00 32 1007.6
20260503051223 55 32 0.0 0.0 0.00 0.00 0.00 32 1007.7
20260503050723 55 32 0.0 0.0 0.00 0.00 0.00 32 1007.6
20260503050223 55 32 0.0 0.0 0.00 0.00 0.00 32 1007.7
20260503045723 56 32 0.0 0.0 0.00 0.00 0.00 32 1007.8
20260503045223 56 32 0.0 0.0 0.00 0.00 0.00 32 1007.8
20260503044723 56 32 0.0 0.0 0.00 0.00 0.00 32 1007.8
20260503044223 56 32 0.0 0.0 0.00 0.00 0.00 32 1007.8
20260503043723 56 32 0.0 0.0 0.00 0.00 0.00 32 1007.8
20260503043223 56 32 0.0 0.0 0.00 0.00 0.00 32 1007.9
20260503042723 56 32 0.0 0.0 0.00 0.00 0.00 32 1007.9
20260503042223 56 32 0.0 0.0 0.00 0.00 0.00 31 1007.9
20260503041723 57 32 0.0 0.0 0.00 0.00 0.00 31 1007.9
20260503041223 57 32 0.0 0.0 0.00 0.00 0.00 32 1007.8
20260503040723 57 32 0.0 0.0 0.00 0.00 0.00 30 1007.9
20260503040223 57 32 0.0 0.0 0.00 0.00 0.00 30 1007.8
20260503035723 57 32 0.0 0.0 0.00 0.00 0.00 30 1007.8
20260503035223 58 32 0.0 0.0 0.00 0.00 0.00 31 1007.7
20260503034723 58 32 0.0 0.0 0.00 0.00 0.00 31 1007.7
20260503034223 58 32 0.0 0.0 0.00 0.00 0.00 30 1007.7
20260503033723 58 32 0.0 0.0 0.00 0.00 0.00 30 1007.7
20260503033223 59 32 0.0 0.0 0.00 0.00 0.00 29 1007.7
20260503032723 59 32 0.0 0.0 0.00 0.00 0.00 29 1007.6
20260503032223 59 32 0.0 0.0 0.00 0.00 0.00 29 1007.6
20260503031723 59 32 0.0 0.0 0.00 0.00 0.00 29 1007.6
20260503031223 59 32 0.0 0.0 0.00 0.00 0.00 31 1007.5
20260503030723 59 32 0.0 0.0 0.00 0.00 0.00 29 1007.5
20260503030223 60 32 0.0 0.0 0.00 0.00 0.00 28 1007.5
20260503025723 60 32 0.0 0.0 0.00 0.00 0.00 28 1007.5
20260503025223 61 32 0.0 0.0 0.00 0.00 0.00 28 1007.5
20260503024723 61 32 0.0 0.0 0.00 0.00 0.00 26 1007.5
20260503024223 61 32 0.0 0.0 0.00 0.00 0.00 26 1007.5
20260503023723 62 32 0.0 0.0 0.00 0.00 0.00 26 1007.5
20260503023223 62 32 0.0 0.0 0.00 0.00 0.00 26 1007.5
20260503022723 63 32 0.0 0.0 0.00 0.00 0.00 26 1007.4
20260503022223 63 32 0.0 0.0 0.00 0.00 0.00 24 1007.4
20260503021723 63 32 0.0 0.0 0.00 0.00 0.00 25 1007.4
20260503021223 64 32 0.0 4.0 0.00 0.00 0.00 24 1007.3
20260503020723 64 32 0.0 3.0 0.00 0.00 0.00 24 1007.4
20260503020223 64 32 0.0 3.0 0.00 0.00 0.00 24 1007.3
20260503015723 65 32 0.0 0.0 0.00 0.00 0.00 23 1007.3
20260503015223 65 32 0.0 1.0 0.00 0.00 0.00 23 1007.3
20260503014723 65 32 1.0 2.0 0.00 0.00 0.00 22 1007.3
20260503014223 66 32 1.0 5.0 0.00 0.00 0.00 22 1007.3
20260503013723 66 14 1.0 5.0 0.00 0.00 0.00 22 1007.3
20260503013223 67 13 1.0 6.0 0.00 0.00 0.00 22 1007.3
20260503012723 67 42 1.0 4.0 0.00 0.00 0.00 22 1007.3
20260503012223 67 42 1.0 3.0 0.00 0.00 0.00 21 1007.2
20260503011723 68 42 2.0 5.0 0.00 0.00 0.00 21 1007.2
20260503011223 68 31 1.0 6.0 0.00 0.00 0.00 21 1007.2
20260503010723 68 38 1.0 4.0 0.00 0.00 0.00 21 1007.1
20260503010223 69 40 1.0 7.0 0.00 0.00 0.00 19 1007.1
20260503005723 69 55 1.0 3.0 0.00 0.00 0.00 20 1007.2
20260503005223 69 78 1.0 6.0 0.00 0.00 0.00 20 1007.2
20260503004723 69 97 0.0 5.0 0.00 0.00 0.00 19 1007.3
20260503004223 69 100 0.0 3.0 0.00 0.00 0.00 18 1007.2